Hourly Data Report for January 06, 2017

All times are specified in Local Standard Time (LST). Add 1 hour to adjust for Daylight Saving Time where and when it is observed.

ST LEONARD CS
NEW BRUNSWICK

47°09'28.050" N
67°49'55.014" W
245.00 m
810I001
71019
WIY

Download Data

Hourly Data (January 2017)
Hourly Data Report for January 6, 2017
Temp Definition
°C
Dew Point Temp Definition
°C
Rel Hum Definition
%
Wind Dir Definition
10's deg

Wind Spd Definition
km/h
Visibility Definition
km
Stn Press Definition
kPa
Hmdx Definition


Wind Chill Definition


Weather Definition


TIME
00:00 -13.7 -16.3 81 22 12   97.77   -20 LegendNANA
01:00 -13.5 -16.2 80 19 9   97.77   -19 LegendNANA
02:00 -14.3 -16.7 82 19 14   97.81   -22 LegendNANA
03:00 -13.2 -15.6 83 18 10   97.87   -19 LegendNANA
04:00 -13.3 -15.2 86 19 11   97.88   -20 LegendNANA
05:00 -13.9 -15.6 87 20 10   97.92   -20 LegendNANA
06:00 -14.2 -15.6 89 24 5   97.99   -18 LegendNANA
07:00 -13.5 -15.0 89 20 11   98.08   -20 LegendNANA
08:00 -13.6 -15.3 87 22 13   98.14   -21 LegendNANA
09:00 -14.6 -16.5 85 24 10   98.19   -21 LegendNANA
10:00 -13.6 -16.4 79 25 10   98.26   -20 LegendNANA
11:00 -11.5 -14.8 76 23 12   98.38   -18 LegendNANA
12:00 -10.3 -15.1 68 24 18   98.37   -18 LegendNANA
13:00 -9.5 -15.6 61 25 24   98.33   -18 LegendNANA
14:00 -9.2 -15.7 59 27 22   98.37   -17 LegendNANA
15:00 -8.9 -15.5 59 28 14   98.43   -15 LegendNANA
16:00 -9.7 -16.3 59 27 11   98.47   -15 LegendNANA
17:00 -12.0 -17.8 62 28 9   98.55   -17 LegendNANA
18:00 -12.4 -17.3 67 27 9   98.59   -18 LegendNANA
19:00 -14.9 -18.8 72 23 7   98.70   -20 LegendNANA
20:00 -15.5 -18.0 81 23 5   98.75   -19 LegendNANA
21:00 -16.8 -18.4 88 27 4   98.79   -20 LegendNANA
22:00 -19.1 -21.4 82 30 5   98.85   -23 LegendNANA
23:00 -19.6 -21.3 86 30 8   98.90   -26 LegendNANA

Notes on Data Quality.

Legend

  • E = Estimated
  • M = Missing
  • NA = Not Available
  • ‡ = Partner data that is not subject to review by the National Climate Archives
Date modified: